Tracking 35030 objects as of 9-Aug-2026
HD Live streaming from Space Station
objects crossing your sky now

COSMOS 777 DEB


COSMOS 777 DEB is no longer on orbit


NORAD ID: 8715
Int'l Code: 1975-102AS
Launch date: October 29, 1975
Source: Commonwealth of Independent States (former USSR) (CIS)
Launch site: TYURATAM MISSILE AND SPACE COMPLEX (TTMTR)
Decay date: 1977-02-09

Note: This is SATELLITE DEBRIS
Your satellite tracking list
Your tracking list is empty




NASA's NSSDC Master Catalog

Two Line Element Set (TLE):
1 08715U 75102 AS 77029.91926613  .00584415 +00000-0 +00000-0 0  9995
2 08715 064.8535 174.4892 0040258 294.5987 065.0927 15.73261833050162
Source of the keplerian elements: AFSPC